| time (UTC) | temp F | wind direction | speed MPH | gust MPH | rain 1hr in | rain 24hr in | rain mn in | humidity % | barometer mb |
| 20260503001503 | 64 | 321 | 5.0 | 13.0 | 0.00 | 0.00 | 0.00 | 88 | 1016.5 |
| 20260503001003 | 64 | 313 | 5.0 | 10.0 | 0.00 | 0.00 | 0.00 | 88 | 1017.0 |
| 20260503000503 | 64 | 328 | 6.0 | 11.0 | 0.00 | 0.00 | 0.00 | 88 | 1017.2 |
| 20260503000003 | 64 | 326 | 6.0 | 11.0 | 0.00 | 0.00 | 0.00 | 88 | 1017.0 |
| 20260502235504 | 64 | 286 | 6.0 | 10.0 | 0.00 | 0.00 | 0.00 | 88 | 1017.3 |
| 20260502235215 | 64 | 263 | 6.0 | 9.0 | 0.00 | 0.00 | 0.00 | 88 | 1017.7 |
| 20260502234713 | 64 | 263 | 5.0 | 9.0 | 0.00 | 0.00 | 0.00 | 88 | 1017.9 |
| 20260502234003 | 64 | 279 | 4.0 | 9.0 | 0.00 | 0.00 | 0.00 | 88 | 1017.9 |
| 20260502233503 | 64 | 287 | 4.0 | 9.0 | 0.00 | 0.00 | 0.00 | 88 | 1018.0 |
| 20260502233004 | 64 | 285 | 5.0 | 9.0 | 0.00 | 0.00 | 0.00 | 88 | 1018.0 |
| 20260502232503 | 64 | 277 | 4.0 | 8.0 | 0.00 | 0.00 | 0.00 | 88 | 1017.9 |
| 20260502232003 | 64 | 278 | 4.0 | 9.0 | 0.00 | 0.00 | 0.00 | 88 | 1017.8 |
| 20260502231504 | 64 | 276 | 3.0 | 9.0 | 0.00 | 0.00 | 0.00 | 88 | 1017.6 |
| 20260502231003 | 64 | 270 | 3.0 | 8.0 | 0.00 | 0.00 | 0.00 | 88 | 1017.9 |
| 20260502230503 | 64 | 276 | 4.0 | 8.0 | 0.00 | 0.00 | 0.00 | 89 | 1017.8 |
| 20260502230003 | 64 | 285 | 5.0 | 8.0 | 0.00 | 0.00 | 0.00 | 89 | 1017.8 |
| 20260502225503 | 64 | 285 | 5.0 | 9.0 | 0.00 | 0.00 | 0.00 | 89 | 1017.8 |
| 20260502225003 | 64 | 281 | 5.0 | 9.0 | 0.00 | 0.00 | 0.00 | 89 | 1017.7 |
| 20260502224503 | 64 | 303 | 5.0 | 9.0 | 0.00 | 0.00 | 0.00 | 89 | 1017.8 |
| 20260502224003 | 64 | 324 | 5.0 | 9.0 | 0.00 | 0.00 | 0.00 | 89 | 1017.4 |
| 20260502223503 | 64 | 319 | 4.0 | 9.0 | 0.00 | 0.00 | 0.00 | 89 | 1017.4 |
| 20260502223213 | 64 | 314 | 4.0 | 9.0 | 0.00 | 0.00 | 0.00 | 89 | 1017.6 |
| 20260502222503 | 64 | 319 | 5.0 | 8.0 | 0.00 | 0.00 | 0.00 | 89 | 1017.5 |
| 20260502222003 | 64 | 324 | 4.0 | 8.0 | 0.00 | 0.00 | 0.00 | 89 | 1017.5 |
| 20260502221503 | 64 | 314 | 4.0 | 7.0 | 0.00 | 0.00 | 0.00 | 89 | 1017.4 |
| 20260502221003 | 64 | 306 | 3.0 | 7.0 | 0.00 | 0.00 | 0.00 | 89 | 1017.5 |
| 20260502220505 | 64 | 310 | 4.0 | 8.0 | 0.00 | 0.00 | 0.00 | 89 | 1017.4 |
| 20260502220004 | 64 | 307 | 4.0 | 8.0 | 0.00 | 0.00 | 0.00 | 89 | 1017.7 |
| 20260502215503 | 64 | 301 | 3.0 | 7.0 | 0.00 | 0.00 | 0.00 | 89 | 1017.8 |
| 20260502215003 | 64 | 315 | 4.0 | 7.0 | 0.00 | 0.00 | 0.00 | 88 | 1017.7 |
| 20260502214503 | 64 | 331 | 4.0 | 8.0 | 0.00 | 0.00 | 0.00 | 88 | 1017.8 |
| 20260502214003 | 64 | 338 | 4.0 | 8.0 | 0.00 | 0.00 | 0.00 | 88 | 1017.9 |
| 20260502213504 | 64 | 338 | 4.0 | 8.0 | 0.00 | 0.00 | 0.00 | 88 | 1017.8 |
| 20260502213003 | 64 | 340 | 5.0 | 10.0 | 0.00 | 0.00 | 0.00 | 88 | 1017.9 |
| 20260502212503 | 64 | 343 | 5.0 | 10.0 | 0.00 | 0.00 | 0.00 | 88 | 1018.1 |
| 20260502212004 | 65 | 345 | 4.0 | 8.0 | 0.00 | 0.00 | 0.00 | 88 | 1018.0 |
| 20260502211503 | 65 | 343 | 5.0 | 9.0 | 0.00 | 0.00 | 0.00 | 88 | 1017.9 |
| 20260502211003 | 65 | 354 | 4.0 | 9.0 | 0.00 | 0.00 | 0.00 | 88 | 1017.9 |
| 20260502210506 | 65 | 20 | 3.0 | 8.0 | 0.00 | 0.00 | 0.00 | 88 | 1017.7 |
| 20260502210003 | 65 | 36 | 3.0 | 9.0 | 0.00 | 0.00 | 0.00 | 88 | 1017.9 |
| 20260502205504 | 65 | 44 | 4.0 | 9.0 | 0.00 | 0.00 | 0.00 | 88 | 1017.9 |
| 20260502205003 | 65 | 48 | 3.0 | 9.0 | 0.00 | 0.00 | 0.00 | 88 | 1017.9 |
| 20260502204503 | 65 | 55 | 2.0 | 14.0 | 0.00 | 0.00 | 0.00 | 88 | 1017.9 |
| 20260502204213 | 65 | 67 | 3.0 | 14.0 | 0.00 | 0.00 | 0.00 | 88 | 1017.9 |
| 20260502203503 | 65 | 80 | 3.0 | 9.0 | 0.00 | 0.00 | 0.00 | 88 | 1017.8 |
| 20260502203003 | 65 | 87 | 3.0 | 9.0 | 0.00 | 0.00 | 0.00 | 88 | 1017.9 |
| 20260502202503 | 65 | 84 | 2.0 | 9.0 | 0.00 | 0.00 | 0.00 | 88 | 1018.3 |
| 20260502202003 | 65 | 92 | 3.0 | 11.0 | 0.00 | 0.00 | 0.00 | 88 | 1017.9 |
| 20260502201503 | 65 | 85 | 4.0 | 13.0 | 0.00 | 0.00 | 0.00 | 89 | 1017.9 |
| 20260502201003 | 65 | 70 | 2.0 | 13.0 | 0.00 | 0.00 | 0.00 | 88 | 1017.7 |
| 20260502200503 | 65 | 53 | 2.0 | 9.0 | 0.00 | 0.00 | 0.00 | 88 | 1017.9 |
| 20260502200003 | 65 | 29 | 4.0 | 9.0 | 0.00 | 0.00 | 0.00 | 88 | 1017.7 |
| 20260502195505 | 65 | 29 | 4.0 | 11.0 | 0.00 | 0.00 | 0.00 | 88 | 1017.5 |
| 20260502195212 | 65 | 23 | 4.0 | 11.0 | 0.00 | 0.00 | 0.00 | 88 | 1017.7 |
| 20260502194503 | 65 | 42 | 4.0 | 9.0 | 0.00 | 0.00 | 0.00 | 88 | 1017.4 |
| 20260502194004 | 65 | 73 | 3.0 | 11.0 | 0.00 | 0.00 | 0.00 | 88 | 1017.2 |
| 20260502193503 | 65 | 66 | 4.0 | 16.0 | 0.00 | 0.00 | 0.00 | 88 | 1017.3 |
| 20260502193003 | 65 | 43 | 6.0 | 16.0 | 0.00 | 0.00 | 0.00 | 88 | 1017.3 |
| 20260502192503 | 65 | 37 | 6.0 | 14.0 | 0.00 | 0.00 | 0.00 | 88 | 1017.4 |
| 20260502192012 | 65 | 42 | 5.0 | 14.0 | 0.00 | 0.00 | 0.00 | 88 | 1017.2 |
| 20260502191503 | 65 | 38 | 6.0 | 18.0 | 0.00 | 0.00 | 0.00 | 88 | 1017.2 |
| 20260502191007 | 65 | 43 | 6.0 | 18.0 | 0.00 | 0.00 | 0.00 | 88 | 1017.1 |
| 20260502190503 | 66 | 69 | 5.0 | 15.0 | 0.00 | 0.00 | 0.00 | 88 | 1017.2 |
| 20260502190004 | 66 | 56 | 6.0 | 17.0 | 0.00 | 0.00 | 0.00 | 87 | 1017.1 |
| 20260502185503 | 66 | 47 | 5.0 | 17.0 | 0.00 | 0.00 | 0.00 | 87 | 1017.3 |
| 20260502185003 | 66 | 38 | 5.0 | 16.0 | 0.00 | 0.00 | 0.00 | 86 | 1017.1 |
| 20260502184503 | 66 | 37 | 6.0 | 16.0 | 0.00 | 0.00 | 0.00 | 86 | 1017.2 |
| 20260502184003 | 66 | 49 | 6.0 | 18.0 | 0.00 | 0.00 | 0.00 | 86 | 1017.2 |
| 20260502183717 | 66 | 49 | 6.0 | 18.0 | 0.00 | 0.00 | 0.00 | 86 | 1017.0 |
| 20260502182503 | 66 | 56 | 5.0 | 19.0 | 0.00 | 0.00 | 0.00 | 86 | 1017.3 |
| 20260502182003 | 66 | 38 | 7.0 | 16.0 | 0.00 | 0.00 | 0.00 | 86 | 1017.2 |
| 20260502181503 | 66 | 34 | 8.0 | 18.0 | 0.00 | 0.00 | 0.00 | 86 | 1017.4 |
| 20260502181217 | 66 | 39 | 7.0 | 21.0 | 0.00 | 0.00 | 0.00 | 85 | 1017.2 |
| 20260502180503 | 66 | 48 | 6.0 | 21.0 | 0.00 | 0.00 | 0.00 | 85 | 1017.3 |
| 20260502164003 | 67 | 69 | 5.0 | 17.0 | 0.00 | 0.00 | 0.00 | 83 | 1017.7 |
| 20260502163503 | 67 | 54 | 7.0 | 18.0 | 0.00 | 0.00 | 0.00 | 83 | 1017.6 |
| 20260502163005 | 68 | 43 | 7.0 | 18.0 | 0.00 | 0.00 | 0.00 | 82 | 1018.0 |
| 20260502162503 | 68 | 76 | 5.0 | 15.0 | 0.00 | 0.00 | 0.00 | 82 | 1018.0 |
| 20260502162003 | 68 | 82 | 5.0 | 13.0 | 0.00 | 0.00 | 0.00 | 82 | 1017.9 |
| 20260502161503 | 68 | 72 | 6.0 | 19.0 | 0.00 | 0.00 | 0.00 | 83 | 1018.0 |
| 20260502161003 | 68 | 63 | 6.0 | 19.0 | 0.00 | 0.00 | 0.00 | 82 | 1017.9 |
| 20260502160503 | 68 | 59 | 6.0 | 15.0 | 0.00 | 0.00 | 0.00 | 82 | 1018.1 |
| 20260502152003 | 68 | 60 | 6.0 | 14.0 | 0.00 | 0.00 | 0.00 | 80 | 1018.5 |
| 20260502151503 | 68 | 67 | 5.0 | 14.0 | 0.00 | 0.00 | 0.00 | 79 | 1018.7 |
| 20260502151214 | 68 | 65 | 4.0 | 11.0 | 0.00 | 0.00 | 0.00 | 80 | 1018.6 |
| 20260502150503 | 69 | 51 | 6.0 | 15.0 | 0.00 | 0.00 | 0.00 | 80 | 1018.8 |
| 20260502130503 | 68 | 92 | 5.0 | 13.0 | 0.00 | 0.00 | 0.00 | 80 | 1020.1 |
| 20260502123503 | 68 | 96 | 7.0 | 15.0 | 0.00 | 0.00 | 0.00 | 81 | 1020.0 |
| 20260502123003 | 68 | 96 | 8.0 | 16.0 | 0.00 | 0.00 | 0.00 | 82 | 1020.0 |
| 20260502122503 | 67 | 96 | 9.0 | 16.0 | 0.00 | 0.00 | 0.00 | 82 | 1020.2 |
| 20260502122215 | 67 | 102 | 9.0 | 16.0 | 0.00 | 0.00 | 0.00 | 82 | 1020.4 |
| 20260502121713 | 68 | 108 | 8.0 | 15.0 | 0.00 | 0.00 | 0.00 | 82 | 1020.3 |
| 20260502121003 | 68 | 106 | 6.0 | 13.0 | 0.00 | 0.00 | 0.00 | 81 | 1020.5 |
| 20260502120714 | 68 | 101 | 5.0 | 13.0 | 0.00 | 0.00 | 0.00 | 81 | 1020.5 |
| 20260502115503 | 68 | 102 | 7.0 | 16.0 | 0.00 | 0.00 | 0.00 | 81 | 1020.3 |
| 20260502115003 | 68 | 99 | 8.0 | 16.0 | 0.00 | 0.00 | 0.00 | 81 | 1020.4 |
| 20260502114503 | 68 | 96 | 7.0 | 15.0 | 0.00 | 0.00 | 0.00 | 80 | 1020.3 |
| 20260502114003 | 68 | 100 | 6.0 | 17.0 | 0.00 | 0.00 | 0.00 | 80 | 1020.5 |
| 20260502113503 | 69 | 76 | 6.0 | 17.0 | 0.00 | 0.00 | 0.00 | 80 | 1020.5 |
| 20260502113003 | 69 | 64 | 5.0 | 16.0 | 0.00 | 0.00 | 0.00 | 80 | 1020.8 |
| 20260502112504 | 69 | 82 | 6.0 | 18.0 | 0.00 | 0.00 | 0.00 | 80 | 1020.7 |
| 20260502112003 | 69 | 78 | 7.0 | 18.0 | 0.00 | 0.00 | 0.00 | 80 | 1020.6 |
| 20260502111713 | 69 | 65 | 5.0 | 17.0 | 0.00 | 0.00 | 0.00 | 80 | 1020.5 |
| 20260502111216 | 69 | 76 | 5.0 | 14.0 | 0.00 | 0.00 | 0.00 | 80 | 1020.7 |
| 20260502110503 | 68 | 95 | 6.0 | 15.0 | 0.00 | 0.00 | 0.00 | 81 | 1020.9 |
| 20260502110217 | 68 | 106 | 7.0 | 16.0 | 0.00 | 0.00 | 0.00 | 81 | 1020.9 |
| 20260502105504 | 68 | 101 | 8.0 | 17.0 | 0.00 | 0.00 | 0.00 | 82 | 1021.1 |
| 20260502105003 | 68 | 80 | 6.0 | 21.0 | 0.00 | 0.00 | 0.00 | 81 | 1020.9 |
| 20260502104504 | 68 | 86 | 6.0 | 21.0 | 0.00 | 0.00 | 0.00 | 82 | 1021.0 |
| 20260502104214 | 68 | 86 | 6.0 | 21.0 | 0.00 | 0.00 | 0.00 | 83 | 1021.0 |
| 20260502103503 | 68 | 83 | 5.0 | 14.0 | 0.00 | 0.00 | 0.00 | 82 | 1021.0 |
| 20260502103003 | 68 | 96 | 6.0 | 17.0 | 0.00 | 0.00 | 0.00 | 81 | 1021.2 |
| 20260502102504 | 68 | 99 | 6.0 | 17.0 | 0.00 | 0.00 | 0.00 | 81 | 1021.1 |
| 20260502102003 | 68 | 89 | 6.0 | 16.0 | 0.00 | 0.00 | 0.00 | 81 | 1021.1 |
| 20260502101503 | 68 | 85 | 6.0 | 16.0 | 0.00 | 0.00 | 0.00 | 81 | 1021.5 |
| 20260502101003 | 67 | 77 | 6.0 | 21.0 | 0.00 | 0.00 | 0.00 | 82 | 1021.2 |
| 20260502100503 | 67 | 87 | 7.0 | 21.0 | 0.00 | 0.00 | 0.00 | 83 | 1021.5 |
| 20260502091503 | 68 | 40 | 6.0 | 16.0 | 0.00 | 0.00 | 0.00 | 80 | 1021.5 |
| 20260502091003 | 67 | 52 | 5.0 | 18.0 | 0.00 | 0.00 | 0.00 | 80 | 1021.5 |
| 20260502090503 | 67 | 52 | 5.0 | 18.0 | 0.00 | 0.00 | 0.00 | 80 | 1021.5 |
| 20260502071504 | 66 | 60 | 4.0 | 10.0 | 0.00 | 0.00 | 0.00 | 86 | 1021.4 |
| 20260502071003 | 66 | 52 | 4.0 | 11.0 | 0.00 | 0.00 | 0.00 | 86 | 1021.6 |
| 20260502070503 | 66 | 42 | 6.0 | 16.0 | 0.00 | 0.00 | 0.00 | 86 | 1021.4 |
| 20260502070215 | 66 | 46 | 5.0 | 16.0 | 0.00 | 0.00 | 0.00 | 86 | 1021.7 |
| 20260502065503 | 66 | 60 | 5.0 | 13.0 | 0.00 | 0.00 | 0.00 | 86 | 1021.8 |
| 20260502065003 | 66 | 59 | 5.0 | 15.0 | 0.00 | 0.00 | 0.00 | 86 | 1021.3 |
| 20260502064503 | 66 | 56 | 5.0 | 15.0 | 0.00 | 0.00 | 0.00 | 86 | 1021.5 |
| 20260502064003 | 66 | 50 | 4.0 | 15.0 | 0.00 | 0.00 | 0.00 | 86 | 1021.4 |
| 20260502063503 | 66 | 52 | 4.0 | 15.0 | 0.00 | 0.00 | 0.00 | 87 | 1021.5 |
| 20260502063212 | 66 | 46 | 4.0 | 13.0 | 0.00 | 0.00 | 0.00 | 87 | 1021.5 |
| 20260502062504 | 65 | 29 | 4.0 | 8.0 | 0.00 | 0.00 | 0.00 | 86 | 1021.4 |
| 20260502062003 | 65 | 33 | 3.0 | 8.0 | 0.00 | 0.00 | 0.00 | 86 | 1021.6 |
| 20260502061503 | 65 | 29 | 3.0 | 8.0 | 0.00 | 0.00 | 0.00 | 86 | 1021.4 |
| 20260502061003 | 65 | 360 | 3.0 | 8.0 | 0.00 | 0.00 | 0.00 | 86 | 1021.3 |
| 20260502060712 | 65 | 352 | 3.0 | 7.0 | 0.00 | 0.00 | 0.00 | 86 | 1021.2 |
| 20260502060003 | 65 | 20 | 3.0 | 8.0 | 0.00 | 0.00 | 0.00 | 86 | 1021.0 |
| 20260502055503 | 65 | 26 | 3.0 | 8.0 | 0.00 | 0.00 | 0.00 | 86 | 1021.1 |
| 20260502055004 | 65 | 8 | 3.0 | 7.0 | 0.00 | 0.00 | 0.00 | 86 | 1021.2 |
| 20260502054714 | 65 | 9 | 3.0 | 7.0 | 0.00 | 0.00 | 0.00 | 86 | 1021.2 |
| 20260502054003 | 65 | 357 | 3.0 | 7.0 | 0.00 | 0.00 | 0.00 | 86 | 1021.3 |
| 20260502053503 | 65 | 347 | 3.0 | 6.0 | 0.00 | 0.00 | 0.00 | 86 | 1021.2 |
| 20260502053004 | 65 | 342 | 3.0 | 6.0 | 0.00 | 0.00 | 0.00 | 86 | 1021.3 |
| 20260502052503 | 65 | 340 | 3.0 | 6.0 | 0.00 | 0.00 | 0.00 | 86 | 1021.2 |
| 20260502052214 | 65 | 331 | 3.0 | 6.0 | 0.00 | 0.00 | 0.00 | 86 | 1021.3 |
| 20260502051504 | 65 | 353 | 4.0 | 9.0 | 0.00 | 0.00 | 0.00 | 86 | 1021.3 |
| 20260502051003 | 65 | 352 | 4.0 | 9.0 | 0.00 | 0.00 | 0.00 | 86 | 1021.3 |
| 20260502050503 | 65 | 352 | 4.0 | 9.0 | 0.00 | 0.00 | 0.00 | 86 | 1021.3 |
| 20260502050003 | 65 | 343 | 4.0 | 9.0 | 0.00 | 0.00 | 0.00 | 86 | 1021.2 |
| 20260502045503 | 65 | 333 | 5.0 | 10.0 | 0.00 | 0.00 | 0.00 | 86 | 1021.2 |
| 20260502045003 | 65 | 348 | 5.0 | 10.0 | 0.00 | 0.00 | 0.00 | 86 | 1021.2 |
| 20260502044504 | 65 | 354 | 5.0 | 9.0 | 0.00 | 0.00 | 0.00 | 86 | 1021.2 |
| 20260502044003 | 65 | 353 | 5.0 | 9.0 | 0.00 | 0.00 | 0.00 | 87 | 1021.5 |
| 20260502043503 | 65 | 347 | 5.0 | 8.0 | 0.00 | 0.00 | 0.00 | 87 | 1021.2 |
| 20260502043003 | 65 | 345 | 5.0 | 8.0 | 0.00 | 0.00 | 0.00 | 87 | 1021.1 |
| 20260502042506 | 65 | 351 | 4.0 | 8.0 | 0.00 | 0.00 | 0.00 | 87 | 1021.4 |
| 20260502042003 | 65 | 353 | 3.0 | 6.0 | 0.00 | 0.00 | 0.00 | 87 | 1021.2 |
| 20260502041503 | 65 | 349 | 4.0 | 7.0 | 0.00 | 0.00 | 0.00 | 87 | 1021.2 |
| 20260502041006 | 65 | 347 | 5.0 | 10.0 | 0.00 | 0.00 | 0.00 | 87 | 1021.1 |
| 20260502040503 | 65 | 345 | 6.0 | 10.0 | 0.00 | 0.00 | 0.00 | 87 | 1021.5 |
| 20260502040006 | 65 | 353 | 5.0 | 11.0 | 0.00 | 0.00 | 0.00 | 87 | 1021.6 |
| 20260502035503 | 65 | 357 | 5.0 | 11.0 | 0.00 | 0.00 | 0.00 | 87 | 1021.5 |
| 20260502035003 | 65 | 345 | 5.0 | 10.0 | 0.00 | 0.00 | 0.00 | 87 | 1021.7 |
| 20260502034503 | 65 | 337 | 5.0 | 10.0 | 0.00 | 0.00 | 0.00 | 87 | 1021.5 |
| 20260502034003 | 65 | 333 | 4.0 | 8.0 | 0.00 | 0.00 | 0.00 | 87 | 1021.7 |
| 20260502033503 | 65 | 339 | 5.0 | 8.0 | 0.00 | 0.00 | 0.00 | 87 | 1021.8 |
| 20260502033003 | 65 | 347 | 5.0 | 8.0 | 0.00 | 0.00 | 0.00 | 87 | 1021.7 |
| 20260502032503 | 65 | 3 | 5.0 | 13.0 | 0.00 | 0.00 | 0.00 | 88 | 1021.7 |
| 20260502032003 | 65 | 13 | 5.0 | 13.0 | 0.00 | 0.00 | 0.00 | 88 | 1021.5 |
| 20260502031505 | 65 | 12 | 5.0 | 11.0 | 0.00 | 0.00 | 0.00 | 88 | 1021.5 |
| 20260502031003 | 65 | 20 | 4.0 | 10.0 | 0.00 | 0.00 | 0.00 | 88 | 1021.5 |
| 20260502030503 | 65 | 36 | 3.0 | 10.0 | 0.00 | 0.00 | 0.00 | 89 | 1021.7 |
| 20260502030003 | 65 | 34 | 4.0 | 10.0 | 0.00 | 0.00 | 0.00 | 89 | 1021.7 |
| 20260502025503 | 65 | 30 | 3.0 | 8.0 | 0.00 | 0.00 | 0.00 | 89 | 1021.6 |
| 20260502025003 | 65 | 28 | 2.0 | 7.0 | 0.00 | 0.00 | 0.00 | 89 | 1021.6 |
| 20260502024504 | 65 | 39 | 2.0 | 7.0 | 0.00 | 0.00 | 0.00 | 89 | 1021.5 |
| 20260502024003 | 65 | 55 | 2.0 | 6.0 | 0.00 | 0.00 | 0.00 | 89 | 1021.1 |
| 20260502023717 | 65 | 52 | 3.0 | 10.0 | 0.00 | 0.00 | 0.00 | 89 | 1021.3 |
| 20260502023003 | 65 | 53 | 3.0 | 10.0 | 0.00 | 0.00 | 0.00 | 89 | 1021.4 |
| 20260502022503 | 65 | 51 | 2.0 | 9.0 | 0.00 | 0.00 | 0.00 | 89 | 1021.5 |
| 20260502022005 | 65 | 73 | 3.0 | 9.0 | 0.00 | 0.00 | 0.00 | 89 | 1021.4 |
| 20260502021503 | 65 | 100 | 4.0 | 9.0 | 0.00 | 0.00 | 0.00 | 89 | 1021.3 |
| 20260502021217 | 65 | 94 | 3.0 | 9.0 | 0.00 | 0.00 | 0.00 | 89 | 1021.3 |
| 20260502020715 | 65 | 71 | 2.0 | 8.0 | 0.00 | 0.00 | 0.00 | 89 | 1021.2 |
| 20260502020003 | 65 | 44 | 2.0 | 7.0 | 0.00 | 0.00 | 0.00 | 88 | 1021.6 |
| 20260502015503 | 65 | 55 | 2.0 | 7.0 | 0.00 | 0.00 | 0.00 | 88 | 1021.8 |
| 20260502015003 | 65 | 68 | 3.0 | 9.0 | 0.00 | 0.00 | 0.00 | 88 | 1021.8 |
| 20260502014503 | 65 | 56 | 3.0 | 9.0 | 0.00 | 0.00 | 0.00 | 88 | 1021.8 |
| 20260502014003 | 65 | 54 | 3.0 | 9.0 | 0.00 | 0.00 | 0.00 | 88 | 1021.9 |
| 20260502013503 | 65 | 62 | 3.0 | 9.0 | 0.00 | 0.00 | 0.00 | 88 | 1021.7 |
| 20260502013003 | 65 | 54 | 4.0 | 11.0 | 0.00 | 0.00 | 0.00 | 87 | 1021.7 |
| 20260502012503 | 65 | 55 | 5.0 | 13.0 | 0.00 | 0.00 | 0.00 | 87 | 1022.0 |
| 20260502012004 | 65 | 77 | 3.0 | 13.0 | 0.00 | 0.00 | 0.00 | 87 | 1022.0 |
| 20260502011715 | 65 | 86 | 3.0 | 10.0 | 0.00 | 0.00 | 0.00 | 87 | 1022.1 |
| 20260502011003 | 65 | 83 | 2.0 | 8.0 | 0.00 | 0.00 | 0.00 | 87 | 1022.0 |
| 20260502010503 | 65 | 88 | 3.0 | 11.0 | 0.00 | 0.00 | 0.00 | 87 | 1022.4 |
| 20260502010213 | 65 | 84 | 3.0 | 11.0 | 0.00 | 0.00 | 0.00 | 87 | 1022.2 |
| 20260502005503 | 65 | 91 | 2.0 | 8.0 | 0.00 | 0.00 | 0.00 | 87 | 1022.3 |
| 20260502005003 | 65 | 78 | 3.0 | 8.0 | 0.00 | 0.00 | 0.00 | 87 | 1022.4 |
| 20260502004503 | 65 | 44 | 2.0 | 7.0 | 0.00 | 0.00 | 0.00 | 87 | 1022.5 |
| 20260502004003 | 65 | 12 | 3.0 | 8.0 | 0.00 | 0.00 | 0.00 | 87 | 1022.5 |
| 20260502003503 | 65 | 15 | 4.0 | 9.0 | 0.00 | 0.00 | 0.00 | 87 | 1022.7 |
| 20260502003003 | 65 | 9 | 4.0 | 9.0 | 0.00 | 0.00 | 0.00 | 87 | 1022.6 |
| 20260502002503 | 65 | 345 | 4.0 | 9.0 | 0.00 | 0.00 | 0.00 | 87 | 1022.5 |
| 20260502002212 | 65 | 340 | 5.0 | 9.0 | 0.00 | 0.00 | 0.00 | 87 | 1022.7 |